TimeEST,TemperatureF,Dew PointF,Humidity,Sea Level PressureIn,VisibilityMPH,Wind Direction,Wind SpeedMPH,Gust SpeedMPH,PrecipitationIn,Events,Conditions,WindDirDegrees,DateUTC
12:53 AM,28.9,21.9,75,29.96,10.0,WSW,3.5,-,N/A,,Overcast,250,2013-02-13 05:53:00
1:53 AM,30.0,23.0,75,29.94,9.0,WSW,5.8,-,N/A,,Overcast,240,2013-02-13 06:53:00
2:19 AM,26.6,21.2,80,29.90,7.0,South,3.5,-,N/A,,Scattered Clouds,180,2013-02-13 07:19:00
2:53 AM,26.1,21.9,84,29.93,6.0,Calm,Calm,-,N/A,,Clear,0,2013-02-13 07:53:00
3:53 AM,25.0,21.0,85,29.91,6.0,South,4.6,-,N/A,,Clear,180,2013-02-13 08:53:00
4:53 AM,24.1,21.0,88,29.89,6.0,South,4.6,-,N/A,,Clear,170,2013-02-13 09:53:00
5:53 AM,24.1,19.9,84,29.88,6.0,South,4.6,-,N/A,,Clear,180,2013-02-13 10:53:00
7:53 AM,23.0,19.9,88,29.84,4.0,SE,4.6,-,N/A,,Clear,140,2013-02-13 12:53:00
8:53 AM,25.0,21.0,85,29.83,5.0,SSE,8.1,-,N/A,,Clear,160,2013-02-13 13:53:00
9:53 AM,30.0,23.0,75,29.82,6.0,South,8.1,-,N/A,,Haze,180,2013-02-13 14:53:00
10:53 AM,34.0,26.1,73,29.82,7.0,South,8.1,-,N/A,,Clear,180,2013-02-13 15:53:00
11:53 AM,36.0,27.0,70,29.81,7.0,SSW,9.2,-,N/A,,Clear,210,2013-02-13 16:53:00
12:53 PM,37.9,28.0,68,29.78,8.0,SSW,8.1,-,N/A,,Clear,200,2013-02-13 17:53:00
1:53 PM,39.9,28.9,65,29.75,8.0,SSW,10.4,-,N/A,,Clear,210,2013-02-13 18:53:00
2:53 PM,42.1,28.9,60,29.74,8.0,West,8.1,-,N/A,,Clear,270,2013-02-13 19:53:00
3:53 PM,43.0,28.9,58,29.73,10.0,WSW,12.7,-,N/A,,Clear,250,2013-02-13 20:53:00
4:53 PM,42.1,28.9,60,29.74,9.0,WSW,8.1,-,N/A,,Scattered Clouds,240,2013-02-13 21:53:00
5:53 PM,39.9,28.0,63,29.74,9.0,WSW,8.1,-,N/A,,Partly Cloudy,250,2013-02-13 22:53:00
6:53 PM,37.9,28.9,70,29.75,10.0,SSW,3.5,-,N/A,,Clear,210,2013-02-13 23:53:00
7:53 PM,37.0,28.0,70,29.77,10.0,SW,5.8,-,N/A,,Clear,230,2013-02-14 00:53:00
8:53 PM,34.0,28.9,82,29.78,7.0,WSW,3.5,-,N/A,,Clear,250,2013-02-14 01:53:00
9:53 PM,28.9,26.1,89,29.77,6.0,Calm,Calm,-,N/A,,Clear,0,2013-02-14 02:53:00
10:53 PM,28.9,27.0,92,29.77,5.0,Calm,Calm,-,N/A,,Clear,0,2013-02-14 03:53:00
11:53 PM,28.9,27.0,92,29.77,4.0,Calm,Calm,-,N/A,,Clear,0,2013-02-14 04:53:00